{"data":{"norad_id":38077,"epoch":"2026-09-20T03:17:29.291712Z","epoch_age_seconds":49686,"freshness":"FRESH","line1":"1 38077U 12006A   26263.13714458 -.00000045  00000+0 -42755-4 0  9993","line2":"2 38077  69.4896 130.0683 0010924 303.3038  56.6942 12.54932315668980","mean_motion":12.54932315,"eccentricity":0.0010924,"inclination_deg":69.4896,"raan_deg":130.0683,"arg_perigee_deg":303.3038,"mean_anomaly_deg":56.6942,"bstar":-4.2755e-5,"rev_number":66898,"period_min":114.74722443497,"perigee_km":1435.3871159591,"apogee_km":1452.4767721881,"semimajor_km":7822.0689440736,"source":"CELESTRAK","updated_at":"2026-09-20T09:00:47.282271Z"}}